Flag Weather past 2 weeks in Salem, Oregon, U.S.A.

Now
55 °F

Cloudy.


Feels Like: 51 °F
Forecast: 44 / 55 °F
Wind: 17 mph from South

Location: McNary Field

Current Time: Nov 28, 2014 at 9:39:44 AM

Latest Report: Nov 28, 2014 at 8:56 AM


Visibility: 10 mi

Pressure: 29.63 "Hg

Humidity: 77%

Dew point: 48 °F

Location of SalemLocation

Historic Weather in Salem — Graph

°F

Salem temperature yesterday

Maximum temperature yesterday: 60 °F (at 4:56 AM)
Minimum temperature yesterday: 53 °F (at 8:56 AM)
Average temperature yesterday: 55 °F

Past Weeks' High & Low Weather Summary

 TemperatureHumidityPressure
High62 °F (Nov 25, 12:56 PM)97% (Nov 20, 7:56 PM)30.43 "Hg (Nov 20, 7:56 PM)
Low22 °F (Nov 16, 5:56 AM)29% (Nov 16, 2:56 PM)29.49 "Hg (Nov 21, 6:56 PM)
Average44 °F76%30.11 "Hg
* Reported Nov 13 7:56 AM — Nov 28 7:56 AM, Salem, Weather by CustomWeather, © 2014

Note: Actual official high and low records may vary slightly from our data, if they occured in-between our weather recording intervals... More about our weather records

Advertising

Salem weather history for previous 24 hours

 ConditionsComfort  
Time TempWeatherWind HumidityBarometerVisibility
7:56 AM
Nov 28
54 °FLight rain. Overcast.18 mph83%29.65 "Hg10 mi
6:56 AM52 °FLight rain. Fog.10 mph93%29.68 "Hg4 mi
5:56 AM54 °FLight rain. Mostly cloudy.17 mph86%29.69 "Hg9 mi
4:56 AM53 °FLight rain. Overcast.12 mph89%29.71 "Hg9 mi
3:56 AM53 °FOvercast.12 mph86%29.73 "Hg10 mi
2:56 AM53 °FOvercast.12 mph89%29.76 "Hg10 mi
1:56 AM53 °FLight rain. Overcast.7 mph89%29.78 "Hg9 mi
12:56 AM53 °FLight rain. Fog.16 mph89%29.79 "Hg6 mi
11:56 PM
Nov 27
53 °FOvercast.12 mph89%29.81 "Hg10 mi
10:56 PM53 °FRain. Fog.14 mph89%29.84 "Hg3 mi
9:56 PM54 °FOvercast.14 mph83%29.85 "Hg10 mi
8:56 PM53 °FMostly cloudy.13 mph86%29.87 "Hg10 mi
7:56 PM54 °FLight rain. Mostly cloudy.15 mph83%29.88 "Hg10 mi
6:56 PM54 °FPassing clouds.18 mph77%29.88 "Hg10 mi
5:56 PM54 °FMostly cloudy.16 mph80%29.90 "Hg10 mi
4:56 PM54 °FMostly cloudy.14 mph83%29.92 "Hg10 mi
3:56 PM54 °FMore clouds than sun.17 mph83%29.92 "Hg10 mi
2:56 PM54 °FLight rain. Mostly cloudy.14 mph86%29.92 "Hg10 mi
1:56 PM55 °FLight rain. More clouds than sun.15 mph83%29.93 "Hg9 mi
12:56 PM55 °FMore clouds than sun.20 mph83%29.94 "Hg10 mi
11:56 AM55 °FLight rain. Mostly cloudy.20 mph83%29.96 "Hg5 mi
10:56 AM54 °FOvercast.9 mph90%29.98 "Hg10 mi
9:56 AM53 °FLight rain. Fog.13 mph89%30.00 "Hg3 mi
Weather by CustomWeather, © 2014

See weather overviewHow to use our weather pages